{"data":{"norad_id":65351,"intl_designator":"2025-190A","name":"STARLINK-34244","alt_names":[],"object_type":"PAYLOAD","status":"ACTIVE","operator":null,"country":"US","launch_date":"2025-08-28","launch_site_code":"AFETR","launch_vehicle":null,"mission":null,"orbit_class":"UNKNOWN","rcs_meters":null,"size_class":null,"mass_kg":null,"dimensions":null,"purposes":["comms"],"wikipedia_slug":null,"has_3d_model":false,"image_url":null,"decayed_at":null,"tle_current":{"epoch":"2026-05-24T19:10:09.795936Z","epoch_age_seconds":88571,"freshness":"FRESH","line1":"1 65351U 25190A   26144.79872449  .00005338  00000+0  16911-3 0  9993","line2":"2 65351  53.1587 174.2748 0001571  72.5338 287.5837 15.34381820 41411","mean_motion":15.3438182,"eccentricity":0.0001571,"inclination_deg":53.1587,"raan_deg":174.2748,"arg_perigee_deg":72.5338,"mean_anomaly_deg":287.5837,"bstar":0.00016911,"rev_number":4141,"period_min":93.848870028974,"perigee_km":461.6825710412,"apogee_km":463.83198002258,"semimajor_km":6840.8942755319,"source":"CELESTRAK","updated_at":"2026-05-25T13:38:20.764415Z"}}}